SWA4445 KMCO-KLAS

Flight info

Callsign SWA4445
Flight time N/A
Altitude 32000
Route RDSOX1 JFRYS PATOY Q116 JAWJA CABLO MEI ELD ADM KA30Y GUP HAHAA RKSTR4
Aircraft B738/M-SDE2E3FGHIRWXY/LB1

Departure

Time 2026-05-01 12:03
Airport Orlando International Airport (KMCO)

Arrival

Time N/A
Airport Harry Reid International Airport (KLAS)
Time Latitude Longitude Altitude Speed Heading
2026-05-01 11:44 28.43346 -81.30062 100 ft 0 kts 13°
2026-05-01 11:50 28.43345 -81.30063 100 ft 2 kts 13°
2026-05-01 11:50 28.43323 -81.30067 99 ft 4 kts 14°
2026-05-01 11:50 28.43300 -81.30079 98 ft 4 kts 50°
2026-05-01 11:51 28.43292 -81.30103 100 ft 4 kts 102°
2026-05-01 11:51 28.43295 -81.30116 97 ft 1 kts 111°
2026-05-01 11:54 28.43291 -81.30105 100 ft 6 kts 111°
2026-05-01 11:54 28.43279 -81.30054 98 ft 7 kts 101°
2026-05-01 11:54 28.43286 -81.30001 100 ft 7 kts 72°
2026-05-01 11:55 28.43315 -81.29914 100 ft 6 kts 67°
2026-05-01 11:55 28.43316 -81.29912 100 ft 0 kts 67°
2026-05-01 11:55 28.43340 -81.29840 101 ft 14 kts 69°
2026-05-01 11:55 28.43421 -81.29804 103 ft 13 kts 358°
2026-05-01 11:56 28.43512 -81.29806 103 ft 14 kts 360°
2026-05-01 11:56 28.43653 -81.29807 103 ft 17 kts 359°
2026-05-01 11:56 28.43766 -81.29826 102 ft 16 kts 339°
2026-05-01 11:56 28.43852 -81.29902 102 ft 16 kts 307°
2026-05-01 11:57 28.43894 -81.30012 102 ft 15 kts 279°
2026-05-01 11:57 28.43900 -81.30089 101 ft 15 kts 273°
2026-05-01 11:57 28.43911 -81.30328 100 ft 23 kts 273°
2026-05-01 11:57 28.43921 -81.30507 99 ft 22 kts 273°
2026-05-01 11:58 28.43931 -81.30682 120 ft 22 kts 274°
2026-05-01 11:58 28.43941 -81.30832 124 ft 2 kts 272°
2026-05-01 11:58 28.43943 -81.30978 101 ft 23 kts 270°
2026-05-01 11:59 28.43916 -81.31197 111 ft 1 kts 298°
2026-05-01 11:59 28.43927 -81.31322 98 ft 30 kts 268°
2026-05-01 11:59 28.43924 -81.31553 101 ft 28 kts 270°
2026-05-01 12:00 28.43939 -81.31896 109 ft 20 kts 294°
2026-05-01 12:00 28.43985 -81.31983 110 ft 19 kts 319°
2026-05-01 12:00 28.44242 -81.32006 107 ft 18 kts 359°
2026-05-01 12:01 28.44367 -81.32008 105 ft 18 kts 359°
2026-05-01 12:01 28.44495 -81.32010 103 ft 27 kts 359°
2026-05-01 12:01 28.44670 -81.32012 101 ft 20 kts 355°
2026-05-01 12:01 28.44716 -81.32143 101 ft 20 kts 269°
2026-05-01 12:02 28.44688 -81.32223 102 ft 11 kts 208°
2026-05-01 12:02 28.44403 -81.32226 104 ft 75 kts 179°
2026-05-01 12:02 28.43666 -81.32218 106 ft 135 kts 179°
2026-05-01 12:02 28.42552 -81.32204 170 ft 178 kts 180°
2026-05-01 12:03 28.41279 -81.32215 685 ft 192 kts 181°
2026-05-01 12:03 28.39897 -81.32304 1220 ft 205 kts 193°
2026-05-01 12:03 28.38478 -81.32666 1754 ft 213 kts 195°
2026-05-01 12:03 28.37029 -81.33148 2075 ft 225 kts 211°
2026-05-01 12:04 28.35815 -81.34333 2375 ft 236 kts 229°
2026-05-01 12:04 28.34666 -81.35712 2873 ft 245 kts 228°
2026-05-01 12:04 28.33457 -81.37184 3207 ft 262 kts 231°
2026-05-01 12:04 28.32741 -81.39061 3981 ft 262 kts 267°
2026-05-01 12:05 28.33037 -81.41091 4786 ft 266 kts 287°
2026-05-01 12:05 28.34142 -81.45118 6306 ft 268 kts 278°
2026-05-01 12:05 28.34387 -81.47210 7085 ft 266 kts 274°
2026-05-01 12:06 28.34560 -81.49299 7860 ft 266 kts 274°
2026-05-01 12:06 28.34725 -81.51392 8660 ft 266 kts 274°
2026-05-01 12:06 28.34890 -81.53482 9482 ft 266 kts 274°
2026-05-01 12:06 28.35067 -81.55571 10235 ft 266 kts 275°
2026-05-01 12:07 28.35256 -81.57724 10486 ft 285 kts 275°
2026-05-01 12:07 28.35463 -81.60049 10646 ft 306 kts 275°
2026-05-01 12:07 28.35688 -81.62537 10802 ft 326 kts 275°
2026-05-01 12:07 28.35928 -81.65147 11138 ft 337 kts 276°
2026-05-01 12:08 28.36172 -81.67783 11644 ft 342 kts 276°
2026-05-01 12:08 28.36423 -81.70483 12300 ft 343 kts 276°
2026-05-01 12:08 28.36674 -81.73177 13002 ft 343 kts 276°
2026-05-01 12:08 28.36925 -81.75879 13659 ft 345 kts 276°
2026-05-01 12:09 28.37178 -81.78602 14259 ft 347 kts 276°
2026-05-01 12:09 28.37432 -81.81344 14838 ft 351 kts 276°
2026-05-01 12:09 28.37687 -81.84110 15400 ft 354 kts 277°
2026-05-01 12:09 28.37946 -81.86913 15966 ft 358 kts 277°
2026-05-01 12:10 28.38206 -81.89733 16550 ft 361 kts 277°
2026-05-01 12:10 28.38731 -81.95453 17663 ft 367 kts 277°
2026-05-01 12:10 28.38996 -81.98356 18187 ft 371 kts 277°
2026-05-01 12:11 28.39527 -82.04185 19121 ft 376 kts 277°
2026-05-01 12:11 28.39795 -82.07141 19590 ft 378 kts 277°
2026-05-01 12:11 28.40064 -82.10116 20037 ft 380 kts 277°
2026-05-01 12:12 28.40335 -82.13119 20475 ft 383 kts 277°
2026-05-01 12:12 28.40607 -82.16134 20900 ft 386 kts 277°
2026-05-01 12:12 28.40880 -82.19175 21325 ft 388 kts 276°
2026-05-01 12:12 28.41154 -82.22232 21740 ft 390 kts 276°
2026-05-01 12:13 28.41430 -82.25320 22126 ft 393 kts 276°
2026-05-01 12:13 28.41706 -82.28413 22525 ft 395 kts 276°
2026-05-01 12:13 28.41979 -82.31484 22908 ft 397 kts 276°
2026-05-01 12:13 28.42256 -82.34614 23281 ft 400 kts 276°
2026-05-01 12:14 28.42536 -82.37770 23627 ft 402 kts 276°
2026-05-01 12:14 28.42815 -82.40936 23905 ft 404 kts 276°
2026-05-01 12:14 28.43315 -82.44077 24152 ft 407 kts 289°
2026-05-01 12:14 28.44617 -82.46953 24440 ft 411 kts 302°
2026-05-01 12:15 28.46460 -82.49450 24756 ft 417 kts 314°
2026-05-01 12:15 28.48822 -82.51406 25045 ft 423 kts 324°
2026-05-01 12:15 28.51334 -82.53103 25307 ft 426 kts 326°
2026-05-01 12:15 28.53930 -82.54790 25551 ft 429 kts 326°
2026-05-01 12:16 28.56536 -82.56474 25803 ft 432 kts 326°
2026-05-01 12:16 28.59151 -82.58176 26063 ft 434 kts 326°
2026-05-01 12:16 28.61778 -82.59906 26333 ft 435 kts 326°
2026-05-01 12:16 28.64403 -82.61650 26591 ft 437 kts 326°
2026-05-01 12:17 28.67027 -82.63403 26839 ft 439 kts 326°
2026-05-01 12:17 28.69678 -82.65181 27074 ft 441 kts 326°
2026-05-01 12:17 28.72295 -82.66939 27320 ft 443 kts 326°
2026-05-01 12:17 28.74956 -82.68728 27563 ft 445 kts 326°
2026-05-01 12:18 28.77627 -82.70523 27883 ft 445 kts 325°
2026-05-01 12:18 28.80304 -82.72323 28197 ft 445 kts 325°
2026-05-01 12:18 28.82979 -82.74124 28411 ft 448 kts 325°
2026-05-01 12:18 28.85671 -82.75937 28597 ft 450 kts 325°
2026-05-01 12:19 28.88374 -82.77759 28819 ft 452 kts 325°
2026-05-01 12:19 28.91083 -82.79584 29106 ft 452 kts 325°
2026-05-01 12:19 28.93790 -82.81409 29445 ft 451 kts 325°
2026-05-01 12:19 28.96489 -82.83230 29810 ft 450 kts 325°
2026-05-01 12:20 28.99183 -82.85050 30137 ft 449 kts 325°
2026-05-01 12:20 29.01873 -82.86868 30418 ft 449 kts 325°
2026-05-01 12:20 29.04520 -82.88658 30732 ft 447 kts 325°
2026-05-01 12:20 29.07170 -82.90498 31104 ft 443 kts 322°
2026-05-01 12:21 29.09683 -82.92499 31557 ft 437 kts 320°
2026-05-01 12:21 29.12138 -82.94529 31939 ft 435 kts 320°
2026-05-01 12:21 29.14584 -82.96567 32228 ft 435 kts 320°
2026-05-01 12:21 29.17039 -82.98604 32508 ft 435 kts 320°
2026-05-01 12:22 29.19492 -83.00626 32832 ft 434 kts 320°
2026-05-01 12:22 29.21921 -83.02619 33175 ft 432 kts 320°
2026-05-01 12:22 29.24379 -83.04633 33527 ft 431 kts 320°
2026-05-01 12:22 29.26799 -83.06617 33830 ft 430 kts 320°
2026-05-01 12:23 29.29230 -83.08609 34118 ft 429 kts 320°
2026-05-01 12:23 29.31649 -83.10591 34448 ft 426 kts 320°
2026-05-01 12:23 29.34051 -83.12560 34812 ft 422 kts 320°
2026-05-01 12:23 29.36430 -83.14513 35177 ft 419 kts 319°
2026-05-01 12:24 29.38778 -83.16440 35643 ft 412 kts 319°
2026-05-01 12:24 29.41102 -83.18347 36119 ft 406 kts 319°
2026-05-01 12:24 29.43390 -83.20230 36378 ft 405 kts 319°
2026-05-01 12:24 29.45684 -83.22122 36527 ft 406 kts 319°
2026-05-01 12:25 29.47977 -83.24014 36725 ft 406 kts 319°
2026-05-01 12:25 29.52514 -83.27755 37252 ft 402 kts 318°
2026-05-01 12:25 29.54785 -83.29629 37468 ft 402 kts 318°
2026-05-01 12:26 29.57059 -83.31507 37669 ft 401 kts 318°
2026-05-01 12:26 29.61585 -83.35243 37951 ft 402 kts 318°
2026-05-01 12:26 29.63856 -83.37124 37976 ft 402 kts 318°
2026-05-01 12:27 29.70618 -83.42733 37969 ft 396 kts 317°
2026-05-01 12:28 29.77287 -83.48255 37961 ft 392 kts 317°
2026-05-01 12:29 29.83897 -83.53748 38001 ft 391 kts 317°
2026-05-01 12:29 29.90613 -83.59327 37984 ft 400 kts 317°
2026-05-01 12:30 29.97395 -83.64947 38012 ft 403 kts 317°
2026-05-01 12:31 30.01930 -83.68710 37983 ft 398 kts 317°
2026-05-01 12:31 30.06382 -83.72410 37986 ft 392 kts 317°
2026-05-01 12:32 30.10802 -83.76095 37986 ft 391 kts 317°
2026-05-01 12:32 30.17167 -83.81819 37980 ft 382 kts 308°
2026-05-01 12:33 30.20425 -83.86600 37991 ft 379 kts 300°
2026-05-01 12:33 30.23413 -83.91681 37967 ft 383 kts 300°
2026-05-01 12:34 30.26412 -83.96774 38007 ft 386 kts 300°
2026-05-01 12:34 30.29450 -84.01915 37974 ft 386 kts 300°
2026-05-01 12:35 30.32483 -84.07049 37958 ft 386 kts 300°
2026-05-01 12:35 30.35507 -84.12169 37962 ft 385 kts 300°
2026-05-01 12:36 30.38518 -84.17275 37970 ft 383 kts 300°
2026-05-01 12:36 30.41513 -84.22361 37968 ft 382 kts 299°
2026-05-01 12:37 30.44488 -84.27421 37970 ft 381 kts 299°
2026-05-01 12:37 30.47471 -84.32500 37975 ft 380 kts 299°
2026-05-01 12:38 30.50441 -84.37564 37958 ft 380 kts 299°
2026-05-01 12:38 30.53406 -84.42626 37957 ft 379 kts 302°
2026-05-01 12:39 30.56417 -84.47639 37960 ft 377 kts 299°
2026-05-01 12:39 30.59313 -84.52680 37955 ft 377 kts 299°
2026-05-01 12:40 30.62243 -84.57738 37961 ft 377 kts 299°
2026-05-01 12:40 30.65179 -84.62784 37964 ft 377 kts 299°
2026-05-01 12:41 30.68116 -84.67833 37979 ft 377 kts 299°
2026-05-01 12:41 30.71045 -84.72871 37962 ft 378 kts 299°
2026-05-01 12:42 30.73988 -84.77940 37963 ft 378 kts 299°
2026-05-01 12:42 30.76925 -84.83004 37968 ft 378 kts 298°
2026-05-01 12:43 30.79403 -84.88355 37970 ft 374 kts 292°
2026-05-01 12:43 30.81694 -84.93779 37978 ft 374 kts 292°
2026-05-01 12:44 30.83991 -84.99211 37977 ft 374 kts 292°
2026-05-01 12:45 30.88596 -85.10070 37993 ft 374 kts 292°
2026-05-01 12:45 30.90879 -85.15463 37983 ft 373 kts 292°
2026-05-01 12:46 30.93172 -85.20884 37978 ft 372 kts 292°
2026-05-01 12:46 30.95454 -85.26287 37957 ft 371 kts 292°
2026-05-01 12:47 30.97362 -85.30812 37930 ft 371 kts 292°
2026-05-01 12:47 30.99621 -85.36173 37964 ft 370 kts 292°
2026-05-01 12:48 31.01882 -85.41549 37969 ft 369 kts 292°
2026-05-01 12:48 31.04137 -85.46919 37957 ft 368 kts 291°
2026-05-01 12:49 31.06390 -85.52292 37960 ft 368 kts 291°
2026-05-01 12:49 31.08626 -85.57631 37960 ft 369 kts 291°
2026-05-01 12:50 31.10877 -85.63014 37970 ft 369 kts 291°
2026-05-01 12:50 31.13130 -85.68412 37979 ft 370 kts 291°
2026-05-01 12:51 31.15386 -85.73822 37978 ft 371 kts 291°
2026-05-01 12:52 31.18774 -85.81961 37979 ft 372 kts 291°
2026-05-01 12:52 31.22157 -85.90109 38005 ft 371 kts 291°
2026-05-01 12:53 31.25515 -85.98214 38005 ft 370 kts 291°
2026-05-01 12:54 31.27754 -86.03627 38003 ft 369 kts 291°
2026-05-01 12:54 31.31094 -86.11720 37990 ft 367 kts 291°
2026-05-01 12:55 31.34413 -86.19771 38004 ft 366 kts 290°
2026-05-01 12:56 31.36616 -86.25134 37975 ft 365 kts 290°
2026-05-01 12:56 31.38801 -86.30460 37976 ft 365 kts 290°
2026-05-01 12:57 31.40999 -86.35822 37979 ft 365 kts 290°
2026-05-01 12:57 31.44299 -86.43892 37961 ft 367 kts 290°
2026-05-01 12:58 31.46506 -86.49294 37956 ft 367 kts 290°
2026-05-01 12:59 31.49809 -86.57398 37946 ft 367 kts 290°
2026-05-01 12:59 31.53100 -86.65487 37936 ft 365 kts 290°
2026-05-01 13:00 31.56346 -86.73497 37947 ft 362 kts 290°
2026-05-01 13:01 31.59583 -86.81483 37948 ft 360 kts 290°
2026-05-01 13:02 31.62792 -86.89425 37955 ft 358 kts 289°
2026-05-01 13:07 31.86097 -87.47657 37982 ft 354 kts 289°
2026-05-01 13:08 31.88178 -87.52910 37988 ft 359 kts 289°
2026-05-01 13:08 31.90300 -87.58271 38011 ft 363 kts 289°
2026-05-01 13:09 31.92439 -87.63679 38005 ft 366 kts 289°
2026-05-01 13:09 31.94573 -87.69074 37965 ft 357 kts 289°
2026-05-01 13:10 31.96635 -87.74289 38009 ft 350 kts 288°
2026-05-01 13:10 31.98741 -87.79474 38021 ft 353 kts 288°
2026-05-01 13:11 32.00795 -87.84770 38020 ft 358 kts 288°
2026-05-01 13:11 32.02890 -87.90188 38015 ft 363 kts 288°
2026-05-01 13:12 32.04996 -87.95593 38010 ft 367 kts 288°
2026-05-01 13:12 32.07139 -88.01075 38018 ft 364 kts 288°
2026-05-01 13:13 32.09228 -88.06403 38011 ft 353 kts 288°
2026-05-01 13:13 32.11269 -88.11636 38013 ft 350 kts 288°
2026-05-01 13:14 32.13296 -88.16844 38018 ft 348 kts 287°
2026-05-01 13:14 32.15312 -88.22033 38026 ft 349 kts 287°
2026-05-01 13:15 32.17341 -88.27263 38023 ft 350 kts 287°
2026-05-01 13:15 32.19362 -88.32478 38026 ft 352 kts 287°
2026-05-01 13:16 32.21404 -88.37753 38025 ft 354 kts 287°
2026-05-01 13:16 32.23454 -88.43056 38028 ft 355 kts 287°
2026-05-01 13:17 32.27562 -88.53707 38029 ft 359 kts 287°
2026-05-01 13:18 32.30669 -88.61785 38043 ft 360 kts 287°
2026-05-01 13:18 32.32825 -88.67133 38055 ft 357 kts 285°
2026-05-01 13:19 32.34762 -88.72553 38081 ft 358 kts 289°
2026-05-01 13:20 32.37828 -88.80598 38022 ft 354 kts 285°
2026-05-01 13:20 32.39214 -88.86131 38012 ft 349 kts 281°
2026-05-01 13:21 32.41165 -88.94362 37962 ft 345 kts 281°
2026-05-01 13:21 32.42467 -88.99830 37967 ft 344 kts 281°
2026-05-01 13:22 32.43762 -89.05262 37971 ft 343 kts 281°
2026-05-01 13:22 32.45056 -89.10702 37972 ft 343 kts 281°
2026-05-01 13:23 32.46348 -89.16139 37970 ft 344 kts 281°
2026-05-01 13:23 32.47643 -89.21601 37977 ft 345 kts 281°
2026-05-01 13:24 32.48938 -89.27071 37968 ft 348 kts 281°
2026-05-01 13:25 32.50904 -89.35402 37977 ft 353 kts 281°
2026-05-01 13:25 32.52230 -89.41033 37942 ft 356 kts 281°
2026-05-01 13:26 32.53562 -89.46702 37946 ft 358 kts 281°
2026-05-01 13:26 32.54901 -89.52411 37935 ft 360 kts 281°
2026-05-01 13:27 32.56241 -89.58137 37955 ft 361 kts 281°
2026-05-01 13:27 32.58261 -89.66720 37952 ft 361 kts 287°
2026-05-01 13:28 32.60314 -89.75152 37986 ft 354 kts 279°
2026-05-01 13:29 32.62822 -89.86457 37983 ft 353 kts 280°